sat.trackr.live / text

‹ back to catalog

STARLINK-34933

NORAD 65253 · 2025-179U

PAYLOAD ACTIVE UNKNOWN

§ Identity

Operator
Country
US
Launch date
2025-08-18
Launch site
AFWTR
Launch vehicle
Mass (kg)
RCS (m²)

Purposes: comms

External: N2YO · Heavens-Above · Gunter

§ Orbital elements

Epoch: 2026-05-25T02:33:19.343232Z

Period
95.64 min
Inclination
97.4496°
Eccentricity
0.0002495
Mean motion
15.05657882 rev/d
Perigee alt
547.8 km
Apogee alt
551.2 km
Semi-major
6,927.6 km
B*
1.7204e-4
RAAN
187.8718°
Arg perigee
125.2025°
Mean anomaly
234.9436°
Rev number
4,331

§ Raw data

STARLINK-349331 65253U 25179U   26145.10647388  .00002425  00000+0  17204-3 0  99992 65253  97.4496 187.8718 0002495 125.2025 234.9436 15.05657882 43318

JSON: /api/v1/satellites/65253 · /tle

For live sub-satellite position, see the globe view (requires WebGL).

§ Visibility from observer

Set your observer location to see the next 7 days of passes ≥ 10°. The values pass through the URL so the page stays shareable.

No JS? Fill the form by hand. The geolocation button needs JavaScript.